Location: Al Mulaqqa?ah
(24.1833°N, 32.8833°E)
Time: 10:00:55
(UTC+00:00)

COSMOS 2455 - Pass Details

Date: 26 September 2021
Orbit: 899 x 910 km, 67.1° (Epoch: 15 October)

Event Time Altitude Azimuth Distance (km) Brightness Sun altitude
Rises 17:26:53 0° 329° (NNW) 3,538 6.5 -25.0°
Reaches altitude 10° 17:29:29 10° 323° (NW) 2,594 5.8 -25.6°
Maximum altitude 17:35:12 47° 252° (WSW) 1,186 3.7 -26.8°
Enters shadow 17:39:45 16° 184° (S) 2,179 4.7 -27.9°
